H1 CPF 2 NER 2025 8 2 9 214 01 glonass140 H2 1903001 9140 44299 2025 8 2 0 0 0 2025 8 5 23 45 0 900 1 1 0 0 0 1 H9 10 0 60889 0.00000 0 7134630.124 -11747558.391 21517074.818 10 0 60889 900.00000 0 7994964.386 -9183087.702 22443835.360 10 0 60889 1800.00000 0 9072524.633 -6607456.875 22936046.405 10 0 60889 2700.00000 0 10348200.175 -4086835.111 22984243.480 10 0 60889 3600.00000 0 11791456.868 -1683278.755 22587526.418 10 0 60889 4500.00000 0 13361487.741 547619.461 21753574.061 10 0 60889 5400.00000 0 15008808.181 2558803.839 20498497.707 10 0 60889 6300.00000 0 16677230.536 4313467.658 18846535.842 10 0 60889 7200.00000 0 18306137.324 5786334.144 16829595.327 10 0 60889 8100.00000 0 19832959.780 6964454.511 14486646.805 10 0 60889 9000.00000 0 21195759.705 7847490.713 11862984.659 10 0 60889 9900.00000 0 22335807.798 8447471.598 9009364.387 10 0 60889 10800.00000 0 23200051.306 8788032.830 5981032.689 10 0 60889 11700.00000 0 23743367.782 8903172.322 2836667.786 10 0 60889 12600.00000 0 23930510.037 8835573.236 -362750.397 10 0 60889 13500.00000 0 23737659.742 8634564.883 -3555118.872 10 0 60889 14400.00000 0 23153523.090 8353807.361 -6678416.450 10 0 60889 15300.00000 0 22179920.752 8048797.778 -9671911.194 10 0 60889 16200.00000 0 20831845.552 7774303.835 -12477346.625 10 0 60889 17100.00000 0 19136983.502 7581833.986 -15040082.895 10 0 60889 18000.00000 0 17134716.614 7517252.237 -17310169.918 10 0 60889 18900.00000 0 14874647.821 7618639.748 -19243330.644 10 0 60889 19800.00000 0 12414708.644 7914495.173 -20801834.513 10 0 60889 20700.00000 0 9818928.063 8422351.412 -21955243.192 10 0 60889 21600.00000 0 7154955.453 9147868.818 -22681013.389 10 0 60889 22500.00000 0 4491440.925 10084444.704 -22964944.379 10 0 60889 23400.00000 0 1895382.571 11213356.951 -22801461.015 10 0 60889 24300.00000 0 -570448.530 12504436.801 -22193726.357 10 0 60889 25200.00000 0 -2849897.928 13917243.292 -21153581.430 10 0 60889 26100.00000 0 -4895532.267 15402690.312 -19701313.160 10 0 60889 27000.00000 0 -6670370.959 16905057.859 -17865255.027 10 0 60889 27900.00000 0 -8149173.286 18364302.619 -15681228.349 10 0 60889 28800.00000 0 -9319228.013 19718570.037 -13191835.470 10 0 60889 29700.00000 0 -10180613.857 20906801.410 -10445619.195 10 0 60889 30600.00000 0 -10745921.663 21871325.448 -7496105.581 10 0 60889 31500.00000 0 -11039452.076 22560324.385 -4400749.728 10 0 60889 32400.00000 0 -11095924.811 22930070.180 -1219806.155 10 0 60889 33300.00000 0 -10958756.300 22946836.355 1984853.158 10 0 60889 34200.00000 0 -10677980.657 22588404.918 5150948.963 10 0 60889 35100.00000 0 -10307903.749 21845105.324 8217008.786 10 0 60889 36000.00000 0 -9904591.069 20720342.413 11123560.666 10 0 60889 36900.00000 0 -9523296.582 19230591.927 13814283.170 10 0 60889 37800.00000 0 -9215941.649 17404864.719 16237089.592 10 0 60889 38700.00000 0 -9028750.384 15283662.804 18345126.025 10 0 60889 39600.00000 0 -9000140.661 12917471.476 20097664.969 10 0 60889 40500.00000 0 -9158958.763 10364850.513 21460878.553 10 0 60889 41400.00000 0 -9523131.006 7690203.689 22408477.963 10 0 60889 42300.00000 0 -10098788.055 4961318.544 22922208.197 10 0 60889 43200.00000 0 -10879898.020 2246777.312 22992190.050 10 0 60889 44100.00000 0 -11848423.378 -386655.275 22617103.785 10 0 60889 45000.00000 0 -12974995.331 -2876560.878 21804211.680 10 0 60889 45900.00000 0 -14220077.971 -5167210.366 20569219.258 10 0 60889 46800.00000 0 -15535574.630 -7211625.399 18935977.619 10 0 60889 47700.00000 0 -16866810.556 -8973274.974 16936031.924 10 0 60889 48600.00000 0 -18154810.495 -10427337.933 14608023.676 10 0 60889 49500.00000 0 -19338777.308 -11561479.972 11996957.009 10 0 60889 50400.00000 0 -20358669.068 -12376113.405 9153341.725 10 0 60889 51300.00000 0 -21157767.476 -12884129.109 6132228.259 10 0 60889 52200.00000 0 -21685130.243 -13110111.869 2992151.995 10 0 60889 53100.00000 0 -21897824.234 -13089071.780 -205993.559 10 0 60889 54000.00000 0 -21762844.831 -12864744.743 -3400133.494 10 0 60889 54900.00000 0 -21258639.514 -12487533.378 -6528215.558 10 0 60889 55800.00000 0 -20376169.919 -12012175.049 -9529417.994 10 0 60889 56700.00000 0 -19119465.772 -11495235.644 -12345337.277 10 0 60889 57600.00000 0 -17505645.292 -10992535.382 -14921131.996 10 0 60889 58500.00000 0 -15564399.197 -10556616.206 -17206599.774 10 0 60889 59400.00000 0 -13336958.080 -10234358.803 -19157165.375 10 0 60889 60300.00000 0 -10874584.837 -10064851.158 -20734759.930 10 0 60889 61200.00000 0 -8236654.076 -10077600.043 -21908573.278 10 0 60889 62100.00000 0 -5488397.943 -10291162.311 -22655664.076 10 0 60889 63000.00000 0 -2698412.050 -10712255.093 -22961415.191 10 0 60889 63900.00000 0 63974.572 -11335383.575 -22819824.962 10 0 60889 64800.00000 0 2731355.752 -12143003.005 -22233628.308 10 0 60889 65700.00000 0 5240819.837 -13106208.730 -21214245.012 10 0 60889 66600.00000 0 7536329.301 -14185925.519 -19781556.045 10 0 60889 67500.00000 0 9570809.113 -15334546.024 -17963512.297 10 0 60889 68400.00000 0 11307856.973 -16497948.985 -15795583.451 10 0 60889 69300.00000 0 12723004.553 -17617811.471 -13320058.136 10 0 60889 70200.00000 0 13804478.066 -18634116.819 -10585209.529 10 0 60889 71100.00000 0 14553427.754 -19487751.572 -7644343.433 10 0 60889 72000.00000 0 14983618.549 -20123080.893 -4554748.320 10 0 60889 72900.00000 0 15120597.075 -20490393.014 -1376568.877 10 0 60889 73800.00000 0 15000372.400 -20548108.957 1828373.943 10 0 60889 74700.00000 0 14667668.462 -20264664.067 4997792.299 10 0 60889 75600.00000 0 14173824.036 -19619982.037 8070145.903 10 0 60889 76500.00000 0 13574430.706 -18606479.670 10985837.317 10 0 60889 77400.00000 0 12926809.822 -17229560.646 13688364.672 10 0 60889 78300.00000 0 12287435.747 -15507578.215 16125409.618 10 0 60889 79200.00000 0 11709414.192 -13471268.965 18249840.112 10 0 60889 80100.00000 0 11240121.565 -11162681.824 20020609.565 10 0 60889 81000.00000 0 10919103.905 -8633647.147 21403536.341 10 0 60889 81900.00000 0 10776322.652 -5943849.399 22371950.032 10 0 60889 82800.00000 0 10830819.750 -3158582.917 22907193.526 10 0 60889 83700.00000 0 11089856.999 -346282.770 22998972.615 10 0 60889 84600.00000 0 11548564.892 2424068.438 22645547.482 10 0 60889 85500.00000 0 12190115.231 5085552.165 21853763.134 10 0 60890 0.00000 0 12986410.234 7575837.538 20638918.570 10 0 60890 900.00000 0 13899260.260 9839515.675 19024476.262 10 0 60890 1800.00000 0 14882000.638 11830146.486 17041618.609 10 0 60890 2700.00000 0 15881482.497 13511938.984 14728656.690 10 0 60890 3600.00000 0 16840354.430 14860993.063 12130302.960 10 0 60890 4500.00000 0 17699540.916 15866053.161 9296819.937 10 0 60890 5400.00000 0 18400814.361 16528742.477 6283060.032 10 0 60890 6300.00000 0 18889353.277 16863267.991 3147413.847 10 0 60890 7200.00000 0 19116179.068 16895608.358 -49313.638 10 0 60890 8100.00000 0 19040368.370 16662218.433 -3245077.826 10 0 60890 9000.00000 0 18630946.767 16208304.475 -6377797.722 10 0 60890 9900.00000 0 17868382.582 15585742.412 -9386564.076 10 0 60890 10800.00000 0 16745615.920 14850726.826 -12212828.612 10 0 60890 11700.00000 0 15268577.481 14061250.039 -14801550.550 10 0 60890 12600.00000 0 13456173.097 13274518.161 -17102277.299 10 0 60890 13500.00000 0 11339732.430 12544413.923 -19070137.389 10 0 60890 14400.00000 0 8961943.021 11919114.319 -20666725.462 10 0 60890 15300.00000 0 6375312.660 11438964.712 -21860861.222 10 0 60890 16200.00000 0 3640223.197 11134700.190 -22629206.835 10 0 60890 17100.00000 0 822656.180 11026090.286 -22956730.141 10 0 60890 18000.00000 0 -2008315.162 11121065.153 -22837004.119 10 0 60890 18900.00000 0 -4783163.187 11415360.735 -22272336.394 10 0 60890 19800.00000 0 -7434562.357 11892698.377 -21273725.971 10 0 60890 20700.00000 0 -9899954.121 12525491.425 -19860647.910 10 0 60890 21600.00000 0 -12123913.075 13276048.865 -18060670.089 10 0 60890 22500.00000 0 -14060215.760 14098224.724 -15908909.692 10 0 60890 23400.00000 0 -15673525.983 14939442.898 -13447340.361 10 0 60890 24300.00000 0 -16940626.898 15743010.924 -10723964.031 10 0 60890 25200.00000 0 -17851149.361 16450623.911 -7791864.347 10 0 60890 26100.00000 0 -18407767.526 17004951.698 -4708161.032 10 0 60890 27000.00000 0 -18625855.363 17352198.889 -1532886.639 10 0 60890 27900.00000 0 -18532620.672 17444528.768 1672191.354 10 0 60890 28800.00000 0 -18165755.317 17242248.088 4844779.092 10 0 60890 29700.00000 0 -17571660.754 16715660.242 7923271.148 10 0 60890 30600.00000 0 -16803325.600 15846508.706 10847947.383 10 0 60890 31500.00000 0 -15917946.315 14628950.198 13562128.314 10 0 60890 32400.00000 0 -14974392.313 13070017.105 16013266.792 10 0 60890 33300.00000 0 -14030622.744 11189550.216 18153955.427 10 0 60890 34200.00000 0 -13141163.521 9019604.958 19942831.238 10 0 60890 35100.00000 0 -12354750.034 6603356.088 21345361.346 10 0 60890 36000.00000 0 -11712233.426 3993546.265 22334496.040 10 0 60890 36900.00000 0 -11244836.975 1250542.504 22891178.097 10 0 60890 37800.00000 0 -10972834.266 -1559919.838 23004699.953 10 0 60890 38700.00000 0 -10904703.228 -4369213.382 22672902.972 10 0 60890 39600.00000 0 -11036790.517 -7108414.453 21902215.710 10 0 60890 40500.00000 0 -11353499.682 -9710912.626 20707530.735 10 0 60890 41400.00000 0 -11827995.191 -12114927.960 19111922.187 10 0 60890 42300.00000 0 -12423393.155 -14265833.423 17146208.872 10 0 60890 43200.00000 0 -13094389.632 -16118187.783 14848370.300 10 0 60890 44100.00000 0 -13789259.195 -17637395.756 12262825.629 10 0 60890 45000.00000 0 -14452140.972 -18800927.157 9439588.045 10 0 60890 45900.00000 0 -15025517.017 -19599044.624 6433309.508 10 0 60890 46800.00000 0 -15452779.498 -20035009.551 3302233.088 10 0 60890 47700.00000 0 -15680778.857 -20124757.301 107072.212 10 0 60890 48600.00000 0 -15662245.342 -19896054.828 -3090162.088 10 0 60890 49500.00000 0 -15357981.044 -19387175.543 -6227363.505 10 0 60890 50400.00000 0 -14738728.677 -18645146.652 -9243538.867 10 0 60890 51300.00000 0 -13786636.546 -17723642.422 -12079998.773 10 0 60890 52200.00000 0 -12496255.848 -16680612.036 -14681506.692 10 0 60890 53100.00000 0 -10875026.015 -15575742.221 -16997363.308 10 0 60890 54000.00000 0 -8943225.318 -14467862.056 -18982404.154 10 0 60890 54900.00000 0 -6733386.572 -13412400.025 -20597890.251 10 0 60890 55800.00000 0 -4289200.462 -12459001.362 -21812273.540 10 0 60890 56700.00000 0 -1663950.747 -11649406.942 -22601821.495 10 0 60890 57600.00000 0 1081454.463 -11015683.969 -22951088.093 10 0 60890 58500.00000 0 3880773.960 -10578883.721 -22853221.482 10 0 60890 59400.00000 0 6664952.028 -10348183.426 -22310101.918 10 0 60890 60300.00000 0 9364759.501 -10320548.680 -21332307.007 10 0 60890 61200.00000 0 11913447.009 -10480930.612 -19938904.757 10 0 60890 62100.00000 0 14249299.605 -10802989.130 -18157078.450 10 0 60890 63000.00000 0 16317986.041 -11250311.058 -16021590.761 10 0 60890 63900.00000 0 18074604.569 -11778070.824 -13574097.930 10 0 60890 64800.00000 0 19485340.092 -12335062.376 -10862327.868 10 0 60890 65700.00000 0 20528663.995 -12866015.177 -7939138.936 10 0 60890 66600.00000 0 21196027.438 -13314094.999 -4861478.712 10 0 60890 67500.00000 0 21492020.560 -13623482.469 -1689264.044 10 0 60890 68400.00000 0 21433992.719 -13741919.196 1515794.711 10 0 60890 69300.00000 0 21051151.817 -13623112.961 4691401.260 10 0 60890 70200.00000 0 20383182.718 -13228899.732 7775888.433 10 0 60890 71100.00000 0 19478444.953 -12531071.009 10709416.471 10 0 60890 72000.00000 0 18391827.297 -11512789.444 13435130.987 10 0 60890 72900.00000 0 17182350.805 -10169533.417 15900258.295 10 0 60890 73800.00000 0 15910621.834 -8509531.186 18057117.467 10 0 60890 74700.00000 0 14636242.250 -6553666.738 19864030.479 10 0 60890 75600.00000 0 13415285.052 -4334861.396 21286114.131 10 0 60890 76500.00000 0 12297940.316 -1896956.852 22295939.928 10 0 60890 77400.00000 0 11326428.735 706854.348 22874050.677 10 0 60890 78300.00000 0 10533268.525 3415986.528 23009325.268 10 0 60890 79200.00000 0 9939966.600 6164726.874 22699185.741 10 0 60890 80100.00000 0 9556187.357 8884717.325 21949643.412 10 0 60890 81000.00000 0 9379432.696 11507551.358 20775183.513 10 0 60890 81900.00000 0 9395245.996 13967380.023 19198490.376 10 0 60890 82800.00000 0 9577931.302 16203421.028 17250017.855 10 0 60890 83700.00000 0 9891757.808 18162268.417 14967412.268 10 0 60890 84600.00000 0 10292599.710 19799908.242 12394797.691 10 0 60890 85500.00000 0 10729943.393 21083357.216 9581936.035 10 0 60891 0.00000 0 11149178.332 21991856.469 6583276.986 10 0 60891 900.00000 0 11494076.280 22517570.984 3456913.304 10 0 60891 1800.00000 0 11709354.055 22665763.977 263464.779 10 0 60891 2700.00000 0 11743212.678 22454439.931 -2935093.537 10 0 60891 3600.00000 0 11549744.566 21913469.234 -6076632.452 10 0 60891 4500.00000 0 11091106.397 21083230.989 -9100077.236 10 0 60891 5400.00000 0 10339364.347 20012830.392 -11946599.632 10 0 60891 6300.00000 0 9277931.903 18757965.243 -14560769.467 10 0 60891 7200.00000 0 7902537.395 17378531.281 -16891642.647 10 0 60891 8100.00000 0 6221678.107 15936067.299 -18893763.486 10 0 60891 9000.00000 0 4256539.487 14491147.940 -20528061.001 10 0 60891 9900.00000 0 2040380.608 13100834.534 -21762620.833 10 0 60891 10800.00000 0 -382590.284 11816291.881 -22573317.056 10 0 60891 11700.00000 0 -2958804.669 10680671.909 -22944290.895 10 0 60891 12600.00000 0 -5627321.782 9727353.848 -22868266.528 10 0 60891 13500.00000 0 -8322133.470 8978615.294 -22346697.395 10 0 60891 14400.00000 0 -10974690.008 8444790.226 -21389739.879 10 0 60891 15300.00000 0 -13516541.484 8123949.256 -20016054.702 10 0 60891 16200.00000 0 -15881984.332 8002115.040 -18252439.879 10 0 60891 17100.00000 0 -18010602.308 8054002.949 -16133302.509 10 0 60891 18000.00000 0 -19849595.499 8244254.651 -13699980.012 10 0 60891 18900.00000 0 -21355800.008 8529111.114 -10999924.569 10 0 60891 19800.00000 0 -22497314.019 8858452.840 -8085767.359 10 0 60891 20700.00000 0 -23254662.785 9178119.481 -5014281.756 10 0 60891 21600.00000 0 -23621454.689 9432409.113 -1845266.727 10 0 60891 22500.00000 0 -23604502.276 9566650.057 1359626.757 10 0 60891 23400.00000 0 -23223404.900 9529735.246 4538102.335 10 0 60891 24300.00000 0 -22509612.465 9276511.080 7628433.553 10 0 60891 25200.00000 0 -21505011.515 8769919.335 10570663.589 10 0 60891 26100.00000 0 -20260094.948 7982801.487 13307765.762 10 0 60891 27000.00000 0 -18831793.665 6899289.509 15786742.479 10 0 60891 27900.00000 0 -17281062.198 5515724.839 17959641.862 10 0 60891 28800.00000 0 -15670320.018 3841067.228 19784473.313 10 0 60891 29700.00000 0 -14060855.530 1896776.512 21226005.584 10 0 60891 30600.00000 0 -12510300.661 -283827.797 22256433.419 10 0 60891 31500.00000 0 -11070280.408 -2656702.785 22855901.374 10 0 60891 32400.00000 0 -9784333.947 -5168667.688 23012876.175 10 0 60891 33300.00000 0 -8686192.378 -7759374.028 22724361.555 10 0 60891 34200.00000 0 -7798483.262 -10363579.986 21995952.239 10 0 60891 35100.00000 0 -7131914.548 -12913636.434 20841726.384 10 0 60891 36000.00000 0 -6684970.746 -15342083.409 19283978.387 10 0 60891 36900.00000 0 -6444133.338 -17584251.150 17352796.628 10 0 60891 37800.00000 0 -6384615.875 -19580759.401 15085493.322 10 0 60891 38700.00000 0 -6471583.089 -21279812.520 12525896.178 10 0 60891 39600.00000 0 -6661803.298 -22639195.810 9723514.192 10 0 60891 40500.00000 0 -6905665.257 -23627890.386 6732592.282 10 0 60891 41400.00000 0 -7149475.213 -24227239.186 3611071.745 10 0 60891 42300.00000 0 -7337937.813 -24431614.967 419475.726 10 0 60891 43200.00000 0 -7416716.364 -24248561.589 -2780259.422 10 0 60891 44100.00000 0 -7334964.065 -23698401.737 -5925984.546 10 0 60891 45000.00000 0 -7047718.554 -22813326.567 -8956546.479 10 0 60891 45900.00000 0 -6518057.358 -21636004.585 -11812981.366 10 0 60891 46800.00000 0 -5718921.527 -20217767.515 -14439668.736 10 0 60891 47700.00000 0 -4634528.422 -18616448.926 -16785423.045 10 0 60891 48600.00000 0 -3261311.829 -16893966.306 -18804500.592 10 0 60891 49500.00000 0 -1608347.388 -15113748.289 -20457501.346 10 0 60891 50400.00000 0 302756.851 -13338115.478 -21712147.246 10 0 60891 51300.00000 0 2438502.277 -11625725.347 -22543921.109 10 0 60891 52200.00000 0 4754648.919 -10029189.021 -22936553.038 10 0 60891 53100.00000 0 7197825.271 -8592960.499 -22882344.331 10 0 60891 54000.00000 0 9707532.409 -7351587.240 -22382322.168 10 0 60891 54900.00000 0 12218459.236 -6328395.640 -21446221.751 10 0 60891 55800.00000 0 14663012.248 -5534666.426 -20092296.069 10 0 60891 56700.00000 0 16973954.044 -4969334.052 -18346956.954 10 0 60891 57600.00000 0 19087040.032 -4619221.797 -16244254.530 10 0 60891 58500.00000 0 20943542.652 -4459801.436 -13825205.527 10 0 60891 59400.00000 0 22492557.263 -4456443.887 -11136984.056 10 0 60891 60300.00000 0 23692993.008 -4566106.307 -8231991.314 10 0 60891 61200.00000 0 24515165.437 -4739382.513 -5166823.279 10 0 60891 62100.00000 0 24941924.657 -4922828.184 -2001157.542 10 0 60891 63000.00000 0 24969272.640 -5061460.788 1203417.990 10 0 60891 63900.00000 0 24606445.074 -5101326.955 4384610.615 10 0 60891 64800.00000 0 23875455.926 -4992027.548 7480638.223 10 0 60891 65700.00000 0 22810125.560 -4689092.867 10431430.330 10 0 60891 66600.00000 0 21454634.915 -4156107.223 13179791.041 10 0 60891 67500.00000 0 19861667.912 -3366493.180 15672501.545 10 0 60891 68400.00000 0 18090221.051 -2304880.440 17861341.279 10 0 60891 69300.00000 0 16203172.618 -968002.109 19704008.901 10 0 60891 70200.00000 0 14264713.202 634919.005 21164926.526 10 0 60891 71100.00000 0 12337744.362 2482310.168 22215913.129 10 0 60891 72000.00000 0 10481352.954 4540908.886 22836715.622 10 0 60891 72900.00000 0 8748464.971 6766916.484 23015388.767 10 0 60891 73800.00000 0 7183774.829 9107598.027 22748517.818 10 0 60891 74700.00000 0 5822034.572 11503263.339 22041280.359 10 0 60891 75600.00000 0 4686772.447 13889548.430 20907346.559 10 0 60891 76500.00000 0 3789492.702 16199904.399 19368619.636 10 0 60891 77400.00000 0 3129388.819 18368192.228 17454820.954 10 0 60891 78300.00000 0 2693581.393 20331277.364 15202926.816 10 0 60891 79200.00000 0 2457870.338 22031517.625 12656466.537 10 0 60891 80100.00000 0 2387969.987 23419041.836 9864693.984 10 0 60891 81000.00000 0 2441175.502 24453724.775 6881647.187 10 0 60891 81900.00000 0 2568390.997 25106776.028 3765112.925 10 0 60891 82800.00000 0 2716434.356 25361875.872 575515.349 10 0 60891 83700.00000 0 2830521.780 25215809.853 -2625250.542 10 0 60891 84600.00000 0 2856827.082 24678574.362 -5775018.274 10 0 60891 85500.00000 0 2745007.102 23772947.549 -8812558.791 10 0 60892 0.00000 0 2450585.625 22533542.509 -11678774.804 10 0 60892 900.00000 0 1937093.451 21005380.674 -14317858.281 10 0 60892 1800.00000 0 1177872.889 19242046.212 -16678383.975 10 0 60892 2700.00000 0 157467.911 17303496.148 -18714321.969 10 0 60892 3600.00000 0 -1127460.557 15253619.449 -20385944.774 10 0 60892 4500.00000 0 -2667735.140 13157646.918 -21660612.020 10 0 60892 5400.00000 0 -4441797.292 11079520.860 -22513416.454 10 0 60892 6300.00000 0 -6416373.595 9079335.111 -22927678.012 10 0 60892 7200.00000 0 -8547646.734 7210953.142 -22895275.799 10 0 60892 8100.00000 0 -10782883.295 5519904.286 -22416811.093 10 0 60892 9000.00000 0 -13062450.985 4041646.373 -21501597.892 10 0 60892 9900.00000 0 -15322141.233 2800267.395 -20167481.019 10 0 60892 10800.00000 0 -17495699.942 1807680.152 -18440485.265 10 0 60892 11700.00000 0 -19517460.224 1063342.757 -16354302.533 10 0 60892 12600.00000 0 -21324966.432 554515.492 -13949627.279 10 0 60892 13500.00000 0 -22861479.084 257041.564 -11273353.687 10 0 60892 14400.00000 0 -24078255.308 136617.000 -8377650.920 10 0 60892 15300.00000 0 -24936508.953 150494.051 -5318935.368 10 0 60892 16200.00000 0 -25408968.268 249544.078 -2156760.947 10 0 60892 17100.00000 0 -25480966.214 380590.733 1047349.894 10 0 60892 18000.00000 0 -25151018.506 488912.962 4231110.578 10 0 60892 18900.00000 0 -24430866.276 520810.492 7332685.888 10 0 60892 19800.00000 0 -23344982.994 426122.238 10291894.278 10 0 60892 20700.00000 0 -21929567.805 160590.529 13051373.264 10 0 60892 21600.00000 0 -20231068.917 -312028.900 15557685.396 10 0 60892 22500.00000 0 -18304300.001 -1018200.058 17762343.899 10 0 60892 23400.00000 0 -16210229.177 -1973257.059 19622738.969 10 0 60892 24300.00000 0 -14013533.177 -3180528.040 21102948.101 10 0 60892 25200.00000 0 -11780018.388 -4630969.094 22174416.204 10 0 60892 26100.00000 0 -9574015.405 -6303323.459 22816493.872 10 0 60892 27000.00000 0 -7455854.176 -8164799.590 23016824.883 10 0 60892 27900.00000 0 -5479523.046 -10172240.464 22771576.608 10 0 60892 28800.00000 0 -3690607.151 -12273736.454 22085509.740 10 0 60892 29700.00000 0 -2124589.966 -14410616.038 20971886.378 10 0 60892 30600.00000 0 -805586.829 -16519733.163 19452218.159 10 0 60892 31500.00000 0 254438.267 -18535957.864 17555858.718 10 0 60892 32400.00000 0 1055941.150 -20394768.174 15319447.434 10 0 60892 33300.00000 0 1611540.693 -22034836.892 12786213.907 10 0 60892 34200.00000 0 1945247.841 -23400506.502 10005155.274 10 0 60892 35100.00000 0 2091212.730 -24444049.620 7030100.818 10 0 60892 36000.00000 0 2092042.302 -25127620.690 3918680.708 10 0 60892 36900.00000 0 1996758.839 -25424816.874 731217.802 10 0 60892 37800.00000 0 1858485.214 -25321781.967 -2470436.723 10 0 60892 38700.00000 0 1731954.479 -24817805.823 -5624101.692 10 0 60892 39600.00000 0 1670949.254 -23925392.747 -8668474.926 10 0 60892 40500.00000 0 1725779.789 -22669794.465 -11544329.056 10 0 60892 41400.00000 0 1940908.388 -21088025.838 -14195670.389 10 0 60892 42300.00000 0 2352822.035 -19227403.406 -16570837.431 10 0 60892 43200.00000 0 2988244.887 -17143667.087 -18623516.888 10 0 60892 44100.00000 0 3862768.065 -14898763.162 -20313656.460 10 0 60892 45000.00000 0 4979956.626 -12558381.135 -21608255.832 10 0 60892 45900.00000 0 6330973.401 -10189347.589 -22482019.676 10 0 60892 46800.00000 0 7894737.452 -7856986.243 -22917859.337 10 0 60892 47700.00000 0 9638612.144 -5622554.969 -22907232.847 10 0 60892 48600.00000 0 11519595.246 -3540867.194 -22450316.252 10 0 60892 49500.00000 0 13485962.074 -1658197.297 -21556002.578 10 0 60892 50400.00000 0 15479293.226 -10557.578 -20241728.275 10 0 60892 51300.00000 0 17436802.035 1377581.514 -18533130.467 10 0 60892 52200.00000 0 19293863.903 2494075.026 -16463541.780 10 0 60892 53100.00000 0 20986640.965 3339359.327 -14073332.894 10 0 60892 54000.00000 0 22454691.357 3926170.935 -11409116.116 10 0 60892 54900.00000 0 23643452.977 4278742.056 -8522826.183 10 0 60892 55800.00000 0 24506496.926 4431508.839 -5470697.101 10 0 60892 56700.00000 0 25007455.733 4427389.068 -2312155.981 10 0 60892 57600.00000 0 25121545.390 4315704.257 891343.546 10 0 60892 58500.00000 0 24836617.689 4149835.955 4077524.488 10 0 60892 59400.00000 0 24153699.361 3984717.157 7184501.976 10 0 60892 60300.00000 0 23086996.452 3874266.198 10151986.721 10 0 60892 61200.00000 0 21663364.913 3868872.524 12922452.746 10 0 60892 62100.00000 0 19921270.812 4013040.942 15442246.775 10 0 60892 63000.00000 0 17909284.757 4343293.801 17662618.292 10 0 60892 63900.00000 0 15684174.220 4886419.143 19540651.160 10 0 60892 64800.00000 0 13308673.752 5658138.093 21040080.012 10 0 60892 65700.00000 0 10849025.813 6662246.892 22131977.079 10 0 60892 66600.00000 0 8372393.909 7890269.215 22795297.648 10 0 60892 67500.00000 0 5944254.375 9321633.177 23017275.100 10 0 60892 68400.00000 0 3625873.519 10924365.930 22793659.097 10 0 60892 69300.00000 0 1471973.028 12656277.520 22128793.170 10 0 60892 70200.00000 0 -471321.442 14466585.706 21035530.635 10 0 60892 71100.00000 0 -2168165.226 16297915.426 19534990.400 10 0 60892 72000.00000 0 -3594244.819 18088591.168 17656156.835 10 0 60892 72900.00000 0 -4737542.637 19775128.315 15435330.516 10 0 60892 73800.00000 0 -5598585.489 21294821.100 12915439.180 10 0 60892 74700.00000 0 -6190166.972 22588320.305 10145220.869 10 0 60892 75600.00000 0 -6536555.626 23602093.836 7178293.607 10 0 60892 76500.00000 0 -6672222.000 24290667.506 4072128.327 10 0 60892 77400.00000 0 -6640137.888 24618551.941 886943.904 10 0 60892 78300.00000 0 -6489719.066 24561774.049 -2315455.010 10 0 60892 79200.00000 0 -6274498.133 24108947.608 -5472875.229 10 0 60892 80100.00000 0 -6049625.755 23261836.476 -8523944.044 10 0 60892 81000.00000 0 -5869306.289 22035385.067 -11409306.232 10 0 60892 81900.00000 0 -5784276.919 20457213.078 -14072785.237 10 0 60892 82800.00000 0 -5839437.991 18566594.037 -16462485.131 10 0 60892 83700.00000 0 -6071736.101 16412959.142 -18531811.083 10 0 60892 84600.00000 0 -6508391.068 14053987.993 -20240387.607 10 0 60892 85500.00000 0 -7165543.408 11553365.487 -21554855.829 99